Home > Weather > Mayen > Past weeks

Flag for Germany Weather for the Past 2 Weeks in Mayen, Rhineland-Palatinate, Germany

Now
48 °F

Cool.


Feels Like: 43 °F
Forecast: 41 / 46 °F
Wind: 13 mph from Southwest

Location: Buechel

Current Time: Apr 29, 2016 at 4:14:25 PM

Latest Report: Apr 29, 2016 at 3:20 PM


Visibility: N/A

Pressure: 29.98 "Hg

Humidity: 50%

Dew Point: 30 °F

Location of MayenLocation

Historic Weather in Mayen — Graph

°F

Mayen Temperature Yesterday

Maximum temperature yesterday: 45 °F (at 3:20 PM)
Minimum temperature yesterday: 28 °F (at 5:20 AM)
Average temperature yesterday: 36 °F

High & Low Weather Summary for the Past Weeks

 TemperatureHumidityPressure
High64 °F (Apr 21, 5:20 PM)100% (Apr 17, 1:20 AM)30.42 "Hg (Apr 17, 1:20 AM)
Low28 °F (Apr 25, 4:20 AM)32% (Apr 21, 5:20 PM)29.53 "Hg (Apr 16, 5:20 AM)
Average42 °F73%29.92 "Hg
* Reported Apr 14 2:20 PM — Apr 29 2:20 PM, Mayen, Weather by CustomWeather, © 2016

Note: Actual official high and low records may vary slightly from our data, if they occured in-between our weather recording intervals... More about our weather records

Advertising

Mayen Weather History for the Previous 24 Hours

Scroll right to see more
 ConditionsComfort  
Time TempWeatherWind HumidityBarometerVisibility
2:20 PM
Fri, Apr 29
48 °FCool.15 mph50%29.98 "HgN/A
1:20 PM46 °FCool.14 mph53%29.98 "HgN/A
12:20 PM46 °FCool.15 mph50%29.98 "HgN/A
11:20 AM46 °FScattered clouds.16 mph62%29.98 "HgN/A
10:20 AM45 °FPartly sunny.12 mph66%29.98 "HgN/A
9:20 AM41 °FPartly sunny.14 mph70%29.98 "HgN/A
8:20 AM37 °FPartly sunny.10 mph81%29.98 "HgN/A
7:20 AM34 °FPartly sunny.8 mph93%29.95 "HgN/A
6:20 AM34 °FPassing clouds.5 mph87%29.95 "HgN/A
5:20 AM34 °FPassing clouds.8 mph87%29.95 "HgN/A
4:20 AM32 °FChilly.8 mph87%29.98 "HgN/A
3:20 AM32 °FChilly.7 mph87%29.98 "HgN/A
2:20 AM34 °FChilly.6 mph87%29.98 "HgN/A
1:20 AM34 °FChilly.7 mph87%29.98 "HgN/A
12:20 AM36 °FChilly.7 mph87%29.98 "HgN/A
11:20 PM
Thu, Apr 28
37 °FChilly.3 mph81%29.98 "HgN/A
10:20 PM39 °FPassing clouds.5 mph75%29.98 "HgN/A
9:20 PM39 °FScattered clouds.5 mph75%29.98 "HgN/A
8:20 PM41 °FScattered clouds.6 mph70%29.98 "HgN/A
7:20 PM43 °FPassing clouds.12 mph61%29.95 "HgN/A
6:20 PM43 °FScattered clouds.16 mph71%29.95 "HgN/A
5:20 PM45 °FScattered clouds.9 mph53%29.95 "HgN/A
4:20 PM43 °FSprinkles. Scattered clouds.12 mph57%29.95 "HgN/A
Weather by CustomWeather, © 2016

See weather overviewHow to use our weather pages